EW6790 Weather Reports


Display with metric or nautical units.
time (UTC)temp
F
wind
direction
speed
MPH
gust
MPH
rain 1hr
in
rain 24hr
in
rain mn
in
humidity
%
barometer
mb
20260510194538 65 332 4.0 17.0 0.00 0.00 0.00 30 1018.5
20260510193020 65 321 5.0 16.0 0.00 0.00 0.00 29 1018.4
20260510191521 65 319 4.0 16.0 0.00 0.00 0.00 29 1018.4
20260510190110 65 307 4.0 15.0 0.00 0.00 0.00 30 1018.5
20260510184558 64 303 5.0 15.0 0.00 0.00 0.00 31 1018.5
20260510183039 64 319 5.0 17.0 0.00 0.00 0.00 29 1018.6
20260510181538 65 309 6.0 17.0 0.00 0.00 0.00 29 1018.7
20260510180020 64 291 4.0 16.0 0.00 0.00 0.00 31 1018.7
20260510174518 64 318 3.0 13.0 0.00 0.00 0.00 31 1018.8
20260510173102 64 324 5.0 12.0 0.00 0.00 0.00 32 1018.7
20260510171557 64 300 7.0 14.0 0.00 0.00 0.00 31 1018.6
20260510170037 64 286 3.0 12.0 0.00 0.00 0.00 31 1018.8
20260510164535 62 321 9.0 16.0 0.00 0.00 0.00 32 1018.9
20260510163020 62 263 5.0 16.0 0.00 0.00 0.00 34 1018.9
20260510161518 62 319 7.0 17.0 0.00 0.00 0.00 34 1018.8
20260510160016 62 328 9.0 17.0 0.00 0.00 0.00 33 1018.7
20260510154516 61 341 5.0 11.0 0.00 0.00 0.00 34 1018.7
20260510153017 62 359 10.0 22.0 0.00 0.00 0.00 33 1018.6
20260510151514 61 324 6.0 11.0 0.00 0.00 0.00 32 1018.5
20260510150014 60 258 5.0 11.0 0.00 0.00 0.00 35 1018.7
20260510144518 60 316 3.0 13.0 0.00 0.00 0.00 37 1018.9
20260510143055 58 270 7.0 15.0 0.00 0.00 0.00 37 1018.9
20260510141553 57 271 8.0 15.0 0.00 0.00 0.00 38 1018.9
20260510140035 55 283 12.0 20.0 0.00 0.00 0.00 40 1019.0
20260510134536 55 252 6.0 13.0 0.00 0.00 0.00 43 1018.9
20260510133019 54 217 6.0 14.0 0.00 0.00 0.00 45 1018.9
20260510131514 53 259 9.0 12.0 0.00 0.00 0.00 43 1018.8
20260510130057 50 262 9.0 11.0 0.00 0.00 0.00 49 1018.8
20260510124604 47 228 4.0 6.0 0.00 0.00 0.00 56 1018.8
20260510123036 0 0.0 0.0 0.00 0.00 0.00 1018.7
20260510121532 0 0.0 0.0 0.00 0.00 0.00 1018.6
20260510120013 0 0.0 0.0 0.00 0.00 0.00 1018.5
20260510114506 0 0.0 0.0 0.00 0.00 0.00 1018.4
20260510113044 0 0.0 0.0 0.00 0.00 0.00 1018.5
20260510111602 0 0.0 0.0 0.00 0.00 0.00 1018.5
20260510110031 37 230 1.0 3.0 0.00 0.00 0.00 66 1018.5
20260510104520 38 262 2.0 4.0 0.00 0.00 0.00 65 1018.5
20260510103105 37 226 0.0 2.0 0.00 0.00 0.00 65 1018.2
20260510101557 37 231 0.0 1.0 0.00 0.00 0.00 66 1018.1
20260510100043 37 232 0.0 3.0 0.00 0.00 0.00 64 1017.9
20260510094542 37 234 1.0 3.0 0.00 0.00 0.00 64 1017.8
20260510093057 37 227 1.0 3.0 0.00 0.00 0.00 62 1017.6
20260510091537 38 235 1.0 1.0 0.00 0.00 0.00 62 1017.4
20260510090046 38 236 0.0 2.0 0.00 0.00 0.00 61 1017.1
20260510084533 38 233 0.0 2.0 0.00 0.00 0.00 62 1017.0
20260510083027 38 246 1.0 3.0 0.00 0.00 0.00 61 1016.7
20260510081526 38 227 0.0 1.0 0.00 0.00 0.00 60 1016.7
20260510080008 39 250 0.0 2.0 0.00 0.00 0.00 58 1016.3
20260510074507 40 250 1.0 3.0 0.00 0.00 0.00 57 1016.2
20260510073005 40 229 1.0 4.0 0.00 0.00 0.00 56 1016.3
20260510071504 43 260 1.0 3.0 0.00 0.00 0.00 53 1016.2
20260510070002 43 271 1.0 2.0 0.00 0.00 0.00 52 1016.3
20260510064608 43 260 1.0 3.0 0.00 0.00 0.00 52 1016.3
20260510063056 44 293 0.0 1.0 0.00 0.00 0.00 50 1016.4
20260510061556 45 325 0.0 3.0 0.00 0.00 0.00 49 1016.4
20260510060040 46 319 1.0 4.0 0.00 0.00 0.00 47 1016.2
20260510054536 46 321 1.0 3.0 0.00 0.00 0.00 48 1016.0
20260510053033 46 321 1.0 4.0 0.00 0.00 0.00 47 1015.8
20260510051531 46 328 2.0 5.0 0.00 0.00 0.00 47 1015.5
20260510050030 46 326 2.0 4.0 0.00 0.00 0.00 46 1015.4
20260510044534 46 323 1.0 2.0 0.00 0.00 0.00 45 1015.3
20260510043026 47 326 0.0 3.0 0.00 0.00 0.00 44 1015.3
20260510041524 47 314 2.0 4.0 0.00 0.00 0.00 42 1015.0
20260510040005 48 323 2.0 4.0 0.00 0.00 0.00 40 1014.8
20260510034501 49 321 2.0 4.0 0.00 0.00 0.00 39 1014.7
20260510033101 49 322 1.0 4.0 0.00 0.00 0.00 39 1014.6
20260510031540 49 327 2.0 5.0 0.00 0.00 0.00 37 1014.5
20260510030040 50 320 3.0 7.0 0.00 0.00 0.00 37 1014.2
20260510024519 50 320 3.0 8.0 0.00 0.00 0.00 36 1013.9
20260510023013 51 314 4.0 7.0 0.00 0.00 0.00 35 1013.6
20260510021552 52 338 3.0 7.0 0.00 0.00 0.00 34 1013.2
20260510020047 53 322 4.0 8.0 0.00 0.00 0.00 33 1012.9
20260510014527 54 347 5.0 8.0 0.00 0.00 0.00 31 1012.5
20260510013024 55 309 4.0 9.0 0.00 0.00 0.00 31 1012.2
20260510011501 56 337 5.0 11.0 0.00 0.00 0.00 30 1011.9
20260510010137 57 343 6.0 11.0 0.00 0.00 0.00 29 1011.7
20260510004537 58 326 8.0 16.0 0.00 0.00 0.00 28 1011.3
20260510003033 60 314 5.0 15.0 0.00 0.00 0.00 27 1011.1
20260510001512 61 338 9.0 17.0 0.00 0.00 0.00 26 1010.8
20260510000011 61 319 8.0 15.0 0.00 0.00 0.00 25 1010.6
20260509234613 62 319 11.0 17.0 0.00 0.00 0.00 25 1010.6
20260509233050 62 334 6.0 18.0 0.00 0.00 0.00 25 1010.3
20260509231533 63 312 6.0 14.0 0.00 0.00 0.00 25 1010.2
20260509230030 63 333 6.0 16.0 0.00 0.00 0.00 26 1010.0
20260509224511 63 313 7.0 19.0 0.00 0.00 0.00 25 1009.7
20260509223014 64 4 4.0 15.0 0.00 0.00 0.00 26 1009.6
20260509221550 64 316 6.0 15.0 0.00 0.00 0.00 24 1009.3
20260509220047 64 330 11.0 20.0 0.00 0.00 0.00 25 1009.1
20260509214533 64 318 7.0 18.0 0.00 0.00 0.00 26 1009.0
20260509213031 64 300 10.0 21.0 0.00 0.00 0.00 26 1009.0
20260509211537 63 345 5.0 19.0 0.00 0.00 0.00 27 1008.9
20260509210027 63 345 5.0 19.0 0.00 0.00 0.00 28 1008.8
20260509204526 63 307 9.0 17.0 0.00 0.00 0.00 27 1008.7
20260509203029 63 306 12.0 22.0 0.00 0.00 0.00 27 1008.7
20260509201524 63 307 7.0 16.0 0.00 0.00 0.00 29 1008.5
20260509200022 63 304 9.0 18.0 0.00 0.00 0.00 29 1008.4